Wind_Speed
2 2 2 1 1 1 0 1 1 2 3 3 3 4 4 4 4 4 4 4 5 5 6 5 5 6 7 6 6 6 7 7 8 9 9 10 10 11 11 10 10 11 12 12 12 12 13 12 12
2 2 1 1 1 0 0 1 1 1 2 3 3 3 4 4 4 4 4 5 5 5 6 6 6 6 7 7 7 6 6 7 8 8 9 9 10 11 11 10 10 11 11 12 12 12 12 12 12
2 2 2 1 1 2 1 1 1 2 2 3 3 3 4 4 4 4 4 5 5 6 6 7 7 6 6 6 6 6 6 6 7 7 8 9 10 10 10 10 11 12 12 12 13 13 12 12 11
2 2 2 1 2 2 2 1 1 2 2 3 3 4 4 4 4 4 4 4 5 6 6 6 6 5 5 5 5 5 6 6 6 7 7 8 9 9 10 10 11 11 12 13 13 13 13 13 12
2 1 1 1 1 2 3 3 2 2 2 3 3 3 4 4 4 4 5 5 5 6 6 6 6 5 5 5 5 5 6 6 6 6 7 7 8 9 10 11 11 12 12 12 13 14 13 13 12
1 1 0 1 2 2 3 3 3 2 2 3 3 3 3 4 4 4 5 5 6 6 6 7 6 6 5 5 5 6 6 6 6 6 7 7 7 8 9 10 10 10 11 11 12 13 12 12 12
1 1 2 1 3 3 3 3 3 3 3 3 3 3 4 4 4 5 5 6 6 6 7 6 6 6 6 5 6 6 5 5 6 6 6 7 7 7 8 8 8 9 8 8 9 11 10 11 12
1 2 2 3 4 4 4 4 4 4 4 4 4 4 4 5 5 5 5 6 6 7 7 6 6 6 6 6 6 6 5 5 5 6 6 6 6 7 8 8 9 8 7 6 7 8 9 10 10
1 2 2 3 4 4 5 4 4 4 4 4 4 5 5 5 6 6 6 6 6 6 6 6 6 6 6 6 6 6 6 5 5 6 6 6 7 7 7 7 7 7 7 7 7 7 7 8 9
1 2 2 3 4 5 5 4 4 4 4 5 5 5 5 5 5 6 6 6 6 6 6 6 6 6 6 6 5 5 5 6 6 6 6 6 6 6 6 6 7 7 7 7 7 7 8 8 9
2 2 3 3 4 4 4 4 4 5 5 6 6 6 5 5 5 5 5 6 6 6 6 6 6 6 6 5 5 5 5 6 6 6 6 5 5 5 5 6 6 6 6 6 6 7 7 8 9
2 2 2 3 4 4 5 5 5 5 5 6 6 6 6 5 5 5 5 6 6 6 6 5 5 5 5 5 5 5 5 6 6 6 6 5 5 5 5 6 6 5 5 5 5 6 7 8 8
2 2 3 3 4 4 5 5 5 5 6 6 6 6 6 6 5 5 5 6 6 6 6 6 5 5 5 5 5 5 5 5 5 5 5 5 6 6 5 5 5 5 5 5 5 6 6 7 7
2 2 3 3 3 4 4 4 4 5 6 6 6 6 6 6 6 6 5 6 6 7 7 7 6 5 6 6 6 6 6 5 5 5 5 5 5 5 5 4 5 5 6 6 6 6 7 7 7
3 3 3 3 3 4 5 5 5 5 6 6 6 6 6 6 6 6 6 7 7 7 7 7 6 6 6 6 6 6 6 6 6 5 5 5 5 4 5 4 5 6 6 6 6 6 6 7 7
4 4 4 3 3 3 4 5 5 5 6 6 6 7 6 6 7 7 7 6 7 7 7 7 7 7 6 6 6 7 7 6 6 5 5 5 5 5 5 5 6 6 6 6 6 6 6 6 7
5 5 4 3 3 3 4 5 5 6 6 7 7 7 7 6 7 7 7 7 7 7 7 7 7 7 7 6 6 7 7 6 6 5 5 6 6 6 5 5 6 6 6 6 6 6 6 6 6
6 5 5 4 3 4 4 5 6 6 7 7 8 8 7 7 7 7 7 7 7 7 6 6 7 7 7 7 6 6 6 7 6 6 6 7 7 6 6 6 6 6 6 6 6 6 6 6 6
7 6 6 5 5 5 5 6 6 7 7 7 8 8 7 7 7 7 7 7 7 7 7 7 7 7 7 7 7 7 7 7 7 7 7 7 7 6 6 6 6 6 6 6 6 6 6 6 6
6 6 7 5 5 5 6 6 7 7 7 8 8 8 7 7 7 7 7 7 7 7 7 7 7 7 7 7 8 7 8 8 8 8 8 8 7 7 7 7 7 6 7 7 7 7 7 7 7
7 6 7 7 6 6 7 6 6 7 7 8 8 8 7 7 7 8 8 7 7 7 6 6 7 7 7 8 8 8 8 8 8 8 8 8 8 8 8 7 7 7 7 7 7 7 7 7 8
8 8 8 8 8 7 8 7 7 8 8 8 8 7 7 7 7 8 8 7 7 7 7 7 7 7 7 8 8 9 9 9 8 9 9 9 9 8 8 7 7 7 7 7 7 7 8 8 8
10 10 10 10 10 9 9 9 7 8 8 8 8 8 8 8 8 8 8 8 8 8 8 8 8 9 8 8 9 9 10 10 9 9 9 8 9 8 7 7 7 7 8 8 9 9 9 9 9
11 11 11 11 11 10 10 9 8 8 8 8 8 8 9 9 8 8 8 8 9 9 9 9 9 9 9 10 10 10 10 10 9 9 9 8 8 8 8 8 8 8 8 8 9 9 9 10 10
12 12 12 12 12 11 10 10 8 9 9 9 9 9 9 10 9 10 10 9 9 10 10 10 10 10 10 10 10 10 10 10 10 9 9 9 9 9 9 8 8 8 9 9 9 10 10 10 11
13 14 14 14 13 12 12 12 10 11 11 11 11 10 10 10 11 11 11 10 11 11 11 11 11 11 11 11 11 11 11 10 10 10 10 9 9 9 9 9 8 8 9 9 9 10 10 11 12
15 15 15 15 14 14 13 12 12 11 11 11 12 12 12 12 11 11 11 11 11 12 12 12 11 12 12 11 11 11 11 11 10 10 10 10 10 9 9 10 10 10 10 10 10 10 10 11 11
16 15 15 16 16 16 14 13 13 12 11 12 12 13 12 13 13 13 13 13 13 13 13 13 13 12 12 12 12 12 12 11 11 11 11 10 10 10 10 11 11 11 11 11 11 11 11 12 12
17 16 16 16 16 17 17 15 15 14 14 14 14 14 15 15 15 15 15 14 14 14 14 14 14 13 12 12 12 13 12 12 12 12 12 11 11 11 11 11 11 11 12 12 12 13 13 13 13
18 18 17 17 17 18 18 16 16 16 16 16 16 16 16 16 16 17 17 16 15 15 15 15 15 14 14 13 13 13 13 13 13 13 13 12 12 12 12 12 12 12 13 13 13 13 14 14 14
Wind_Direction
116 98 94 99 135 164 96 46 36 38 24 25 18 10 8 7 360 348 332 319 317 318 316 316 314 314 304 294 291 282 276 274 277 274 266 260 260 260 257 259 255 253 252 253 250 247 248 249 249
103 87 83 116 110 80 61 59 51 28 20 24 17 7 4 0 1 353 336 322 321 320 319 312 312 310 302 296 287 279 280 276 279 277 269 265 266 266 260 256 258 257 257 255 253 250 247 247 249
84 75 79 90 49 39 43 56 24 3 3 5 1 359 356 352 349 341 336 329 326 324 322 318 316 312 309 300 289 282 282 279 280 280 276 271 266 264 263 258 263 263 259 259 260 256 252 252 252
77 73 69 44 20 28 31 30 10 348 353 352 348 352 347 345 342 341 339 338 334 332 333 327 320 317 319 314 299 290 288 285 281 278 277 273 267 268 266 266 268 267 263 261 259 257 255 253 253
78 81 83 65 27 27 28 22 23 17 356 345 343 347 350 344 339 338 340 340 342 337 337 340 334 331 326 324 312 299 293 290 287 281 278 277 274 272 270 269 272 272 270 266 261 255 252 252 254
87 11 357 348 3 6 20 16 19 25 354 353 354 350 353 349 344 337 332 336 336 335 335 338 336 331 327 323 320 312 302 293 288 283 281 278 281 277 275 273 274 278 276 270 258 251 248 255 258
81 10 6 7 4 7 22 22 16 12 355 348 355 357 354 350 349 338 336 336 332 328 328 331 333 333 330 328 321 312 305 301 293 288 284 283 284 280 275 278 279 278 277 270 260 250 247 253 255
28 0 6 14 13 11 22 25 21 11 359 349 349 351 345 348 349 344 341 341 336 332 333 333 331 328 327 323 321 314 308 303 299 296 292 288 284 280 278 279 280 278 276 272 257 252 248 249 252
345 354 8 13 14 17 20 23 18 9 360 354 352 348 347 347 349 347 345 345 340 337 334 333 331 327 321 320 315 312 309 305 299 299 298 296 291 286 280 279 279 276 273 267 261 255 253 251 247
13 22 18 7 6 12 14 14 10 7 2 359 358 350 348 347 349 348 347 347 342 337 331 331 330 326 324 324 321 314 311 309 306 306 301 299 296 292 285 283 283 280 267 263 263 260 258 258 255
359 8 13 360 358 5 5 4 3 359 0 1 4 1 357 350 347 347 345 343 339 339 334 331 335 334 330 330 326 318 313 314 311 312 305 300 295 293 289 290 286 279 266 263 263 263 264 260 262
334 334 343 347 352 355 1 3 2 355 355 0 5 2 360 353 349 343 341 338 337 340 342 337 339 340 338 334 332 326 322 321 320 313 307 300 299 297 294 290 288 278 276 272 272 273 269 267 268
317 320 334 337 343 349 356 355 350 343 347 350 357 357 355 354 346 335 333 334 337 342 345 344 343 348 349 345 342 337 333 328 323 318 313 309 303 300 292 287 290 283 281 281 282 283 278 274 273
305 316 332 332 337 343 350 349 338 333 340 342 349 355 353 349 343 339 332 336 338 339 342 346 342 344 348 346 340 336 336 334 330 325 317 313 311 308 294 284 288 288 284 286 288 288 285 281 281
280 298 311 317 329 334 343 348 338 338 338 339 345 348 347 346 346 342 336 331 335 340 341 341 337 338 343 343 340 334 329 327 323 319 317 312 311 312 307 300 289 289 287 287 291 296 292 286 284
279 289 299 312 331 337 336 342 333 333 335 334 337 340 338 336 338 337 336 333 332 336 340 340 336 334 335 338 339 336 331 328 325 322 323 319 315 312 303 298 296 291 286 286 290 295 293 288 284
274 280 286 306 328 339 334 337 334 335 334 332 331 333 332 330 331 334 334 333 327 327 333 340 340 339 338 337 337 335 336 336 333 328 327 322 316 311 304 301 300 295 289 289 293 296 289 284 285
272 285 294 305 319 326 332 332 332 333 334 334 333 335 332 328 328 330 330 333 333 328 328 334 338 341 339 333 332 334 334 335 334 325 321 320 318 314 307 304 301 296 290 290 292 291 288 286 289
271 288 301 304 311 317 322 328 330 331 330 331 333 334 333 329 326 322 323 325 330 332 328 325 331 336 334 331 331 333 332 332 330 322 318 319 318 313 307 302 301 297 291 292 295 292 290 290 288
273 280 289 296 304 309 315 322 322 324 328 333 333 333 329 323 320 315 316 320 326 329 326 322 323 326 326 324 326 328 326 326 324 322 318 318 316 312 306 303 300 296 293 292 293 291 289 281 284
270 278 285 294 298 302 303 309 312 317 320 326 329 328 323 318 318 313 310 314 320 323 321 320 320 320 318 319 320 322 321 320 319 318 316 314 311 310 306 300 296 292 291 293 292 289 284 283 286
269 274 278 284 289 294 300 306 306 312 318 320 323 323 318 311 311 312 310 310 311 310 315 317 315 316 316 315 315 316 318 317 315 315 312 313 313 310 304 299 294 289 286 287 288 288 287 286 289
271 271 273 278 282 285 290 294 302 309 312 313 314 315 312 309 308 306 306 305 306 305 308 311 311 314 315 311 310 313 316 316 313 310 310 310 311 308 304 300 291 289 288 287 281 282 284 286 288
268 269 271 278 280 282 287 290 297 308 312 314 313 311 308 306 305 303 302 299 300 299 301 306 306 309 309 308 309 310 314 318 316 312 310 309 311 309 304 303 295 290 289 290 285 282 282 286 288
265 268 270 274 276 279 284 286 296 301 305 310 311 310 306 301 299 300 301 299 298 298 299 302 301 301 302 303 304 306 309 312 313 312 310 308 307 304 302 298 295 292 292 290 287 287 287 286 286
261 264 268 272 276 278 281 286 289 291 296 300 303 304 304 300 295 297 298 297 297 295 295 297 296 295 296 297 299 300 302 304 306 307 306 307 308 302 298 297 294 292 293 288 288 289 289 288 287
259 261 267 270 273 274 277 283 284 288 288 292 296 298 301 301 296 295 296 295 295 293 293 294 292 291 291 291 292 294 297 300 302 302 302 305 305 302 297 297 293 291 288 285 284 285 286 289 290
259 261 265 268 272 274 274 277 280 285 287 289 290 292 296 298 296 294 293 292 292 291 291 292 290 288 287 288 291 290 292 294 296 298 299 300 300 299 297 295 292 288 286 285 283 284 286 288 289
258 259 262 266 269 272 273 275 277 278 281 283 286 287 291 296 296 293 293 292 291 290 288 289 288 283 281 284 287 287 288 289 291 294 296 297 296 296 295 294 289 289 287 285 282 282 284 285 287
257 258 260 263 267 271 274 274 273 273 278 281 285 287 290 293 294 292 291 291 290 290 288 286 284 281 278 279 283 285 286 288 289 291 292 292 294 294 293 291 287 287 288 285 284 281 282 284 285
Height
5887 5887 5887 5887 5887 5886 5885 5885 5884 5884 5883 5883 5882 5881 5881 5880 5881 5882 5879 5876 5876 5875 5875 5874 5873 5872 5871 5871 5871 5870 5870 5870 5870 5870 5869 5869 5869 5869 5869 5870 5869 5869 5870 5870 5870 5870 5870 5871 5871
5887 5887 5888 5888 5886 5885 5886 5885 5884 5883 5883 5882 5882 5881 5880 5879 5879 5878 5876 5876 5875 5874 5874 5873 5872 5872 5871 5870 5869 5869 5869 5869 5869 5868 5868 5868 5868 5868 5868 5868 5868 5868 5867 5867 5868 5868 5868 5868 5869
5887 5887 5888 5887 5886 5886 5885 5884 5884 5883 5883 5882 5882 5881 5880 5879 5878 5877 5876 5875 5874 5874 5873 5872 5871 5870 5870 5869 5868 5868 5868 5868 5867 5867 5867 5866 5866 5866 5866 5866 5866 5865 5865 5865 5865 5865 5866 5866 5867
5888 5888 5888 5887 5886 5886 5885 5884 5883 5883 5882 5882 5881 5880 5879 5879 5878 5876 5875 5874 5874 5873 5872 5871 5870 5869 5869 5868 5867 5867 5867 5867 5866 5866 5865 5865 5865 5865 5864 5864 5863 5863 5863 5862 5862 5862 5863 5864 5864
5888 5888 5888 5886 5886 5885 5884 5883 5883 5882 5882 5881 5880 5880 5879 5878 5877 5876 5875 5874 5873 5872 5871 5870 5869 5868 5868 5867 5866 5866 5865 5865 5865 5864 5864 5863 5863 5863 5863 5862 5861 5861 5860 5858 5858 5859 5861 5861 5862
5888 5888 5887 5886 5886 5885 5884 5883 5882 5882 5881 5880 5880 5879 5878 5878 5876 5875 5874 5873 5872 5871 5870 5869 5868 5868 5867 5866 5865 5865 5864 5864 5863 5863 5862 5862 5861 5861 5861 5860 5859 5858 5856 5854 5853 5855 5857 5858 5859
5889 5888 5887 5886 5885 5884 5883 5882 5881 5881 5880 5880 5879 5879 5877 5877 5876 5875 5873 5872 5871 5871 5870 5868 5868 5867 5866 5865 5864 5864 5863 5862 5862 5861 5861 5860 5860 5860 5859 5859 5858 5857 5855 5852 5851 5853 5854 5855 5856
5888 5888 5886 5886 5885 5884 5883 5882 5881 5880 5880 5879 5879 5878 5877 5876 5875 5874 5873 5871 5871 5870 5868 5867 5867 5866 5865 5864 5863 5863 5862 5861 5861 5860 5859 5859 5858 5858 5858 5857 5856 5855 5854 5852 5852 5852 5853 5853 5853
5888 5888 5886 5886 5885 5884 5883 5882 5881 5880 5879 5879 5878 5877 5876 5875 5874 5873 5872 5871 5870 5869 5868 5867 5866 5864 5864 5863 5862 5861 5861 5860 5859 5859 5858 5857 5857 5856 5856 5855 5854 5854 5853 5852 5851 5851 5851 5851 5851
5888 5887 5886 5885 5884 5883 5882 5881 5881 5880 5879 5878 5877 5876 5875 5874 5873 5872 5871 5870 5869 5868 5867 5866 5865 5864 5863 5862 5861 5860 5859 5859 5858 5857 5856 5856 5855 5855 5854 5853 5853 5852 5851 5851 5851 5850 5850 5850 5850
5887 5886 5885 5884 5883 5882 5882 5881 5880 5879 5878 5878 5877 5875 5874 5873 5872 5871 5870 5870 5868 5867 5866 5865 5864 5863 5861 5860 5860 5859 5858 5857 5857 5856 5855 5854 5854 5853 5853 5852 5851 5850 5850 5850 5849 5849 5849 5848 5848
5887 5886 5885 5884 5883 5882 5881 5880 5879 5878 5878 5877 5876 5875 5874 5873 5872 5871 5870 5869 5867 5866 5865 5864 5862 5861 5860 5859 5859 5858 5857 5856 5855 5854 5853 5853 5852 5851 5851 5850 5849 5849 5849 5848 5848 5848 5847 5847 5846
5886 5885 5884 5883 5882 5882 5881 5880 5879 5878 5877 5876 5875 5874 5873 5872 5871 5870 5869 5868 5867 5865 5864 5863 5862 5860 5859 5858 5857 5856 5856 5855 5854 5853 5852 5851 5851 5850 5849 5848 5848 5848 5847 5847 5846 5846 5845 5845 5845
5885 5885 5884 5883 5882 5881 5880 5879 5878 5877 5876 5875 5874 5873 5872 5871 5870 5869 5868 5867 5866 5864 5863 5862 5861 5859 5858 5857 5856 5855 5854 5854 5853 5852 5851 5850 5849 5848 5848 5847 5847 5846 5846 5845 5845 5844 5844 5844 5843
5884 5884 5883 5882 5881 5880 5880 5879 5877 5876 5875 5874 5873 5872 5871 5870 5869 5868 5867 5865 5864 5863 5862 5861 5860 5858 5857 5856 5855 5854 5853 5852 5851 5850 5849 5848 5847 5847 5846 5846 5845 5845 5844 5844 5843 5843 5842 5842 5841
5883 5883 5882 5881 5880 5879 5880 5878 5877 5876 5875 5873 5872 5871 5870 5869 5868 5867 5866 5864 5863 5862 5861 5860 5859 5857 5856 5855 5854 5853 5852 5851 5850 5849 5848 5847 5846 5845 5845 5844 5844 5843 5842 5842 5841 5841 5840 5840 5840
5882 5882 5881 5880 5879 5878 5878 5877 5876 5874 5873 5872 5871 5870 5869 5868 5867 5866 5865 5863 5862 5861 5860 5859 5858 5856 5855 5854 5853 5852 5851 5849 5848 5847 5847 5846 5845 5844 5843 5842 5842 5841 5840 5840 5840 5839 5839 5838 5838
5881 5880 5879 5879 5878 5877 5876 5876 5874 5873 5872 5871 5870 5869 5868 5867 5866 5864 5863 5862 5861 5860 5859 5858 5857 5855 5854 5853 5852 5851 5850 5848 5847 5846 5845 5844 5843 5842 5841 5840 5840 5839 5839 5838 5838 5837 5837 5836 5836
5879 5878 5878 5877 5876 5876 5875 5874 5873 5872 5871 5870 5869 5868 5866 5865 5864 5863 5862 5861 5860 5859 5858 5856 5855 5854 5853 5852 5851 5849 5848 5847 5846 5845 5844 5843 5842 5841 5840 5839 5838 5837 5837 5836 5836 5835 5835 5834 5834
5877 5877 5876 5876 5875 5874 5873 5873 5871 5870 5869 5868 5867 5866 5865 5864 5863 5861 5860 5860 5859 5858 5856 5855 5854 5853 5852 5851 5849 5848 5847 5846 5844 5843 5842 5841 5840 5839 5838 5837 5836 5835 5835 5834 5834 5833 5833 5832 5832
5875 5875 5874 5874 5874 5873 5872 5872 5870 5869 5868 5867 5866 5865 5863 5862 5861 5860 5859 5858 5857 5856 5855 5854 5853 5852 5851 5849 5848 5847 5846 5844 5843 5841 5840 5839 5838 5837 5836 5835 5834 5833 5832 5832 5831 5831 5830 5830 5830
5873 5873 5872 5872 5871 5871 5871 5870 5869 5867 5866 5865 5864 5863 5862 5860 5859 5858 5857 5856 5856 5855 5854 5852 5851 5850 5849 5848 5847 5845 5844 5842 5841 5839 5838 5837 5836 5835 5833 5832 5831 5831 5830 5830 5829 5829 5828 5828 5827
5870 5870 5870 5869 5869 5869 5868 5867 5867 5865 5864 5863 5862 5861 5860 5858 5858 5856 5855 5854 5854 5853 5852 5851 5849 5848 5847 5846 5844 5843 5842 5840 5839 5837 5836 5835 5833 5832 5831 5830 5829 5828 5828 5827 5827 5826 5826 5825 5825
5868 5868 5867 5866 5866 5866 5865 5864 5864 5863 5862 5861 5860 5859 5857 5856 5855 5854 5853 5852 5851 5850 5850 5848 5847 5846 5845 5844 5842 5841 5840 5838 5836 5835 5833 5832 5831 5830 5829 5828 5827 5826 5826 5825 5824 5824 5823 5823 5822
5865 5865 5865 5864 5863 5863 5862 5861 5862 5860 5858 5858 5857 5856 5854 5853 5853 5852 5851 5850 5849 5848 5847 5846 5845 5843 5842 5841 5840 5839 5837 5836 5834 5833 5831 5830 5828 5827 5826 5825 5825 5824 5823 5823 5822 5821 5820 5820 5819
5861 5862 5862 5861 5860 5860 5859 5858 5859 5857 5855 5854 5854 5853 5852 5851 5850 5849 5848 5847 5846 5845 5844 5843 5842 5841 5840 5838 5837 5836 5834 5833 5832 5830 5829 5827 5826 5824 5824 5823 5822 5821 5821 5820 5819 5818 5817 5817 5816
5857 5857 5857 5857 5856 5856 5855 5855 5854 5853 5852 5851 5850 5850 5849 5848 5847 5846 5845 5844 5843 5842 5841 5840 5839 5838 5836 5835 5834 5833 5832 5830 5829 5827 5826 5825 5823 5822 5821 5820 5819 5819 5818 5817 5816 5816 5815 5814 5813
5853 5853 5853 5852 5852 5852 5851 5851 5851 5849 5849 5848 5847 5846 5845 5844 5843 5842 5841 5841 5840 5838 5837 5836 5836 5834 5833 5832 5831 5830 5829 5827 5826 5825 5823 5822 5820 5819 5818 5817 5816 5815 5815 5814 5813 5813 5812 5811 5810
5848 5849 5848 5848 5848 5847 5847 5850 5847 5846 5845 5844 5844 5843 5842 5841 5839 5838 5838 5837 5836 5834 5833 5832 5832 5831 5830 5829 5828 5827 5825 5824 5823 5821 5820 5819 5817 5816 5815 5814 5813 5812 5811 5810 5810 5809 5808 5807 5806
5843 5843 5843 5844 5843 5842 5842 5846 5842 5841 5840 5840 5839 5839 5838 5837 5835 5834 5833 5832 5831 5830 5829 5828 5827 5826 5826 5825 5824 5823 5822 5821 5819 5818 5817 5815 5814 5813 5812 5811 5810 5809 5808 5807 5806 5805 5804 5803 5803